Tracking 19817 objects as of 18-Aug-2019
HD Live streaming from Space Station
objects crossing your sky now

COSMOS 2251 DEB

Track COSMOS 2251 DEB now!
10-day predictions


NORAD ID: 34323
Int'l Code: 1993-036NV
Perigee: 684.0 km
Apogee: 841.0 km
Inclination: 74.0 °
Period: 99.9 minutes
Semi major axis: 7133 km
RCS: 0.033 m2 (small)
Launch date: June 16, 1993
Source: Commonwealth of Independent States (former USSR) (CIS)
Launch site: PLESETSK MISSILE AND SPACE COMPLEX (PKMTR)

Note: This is SATELLITE DEBRIS
aabbcc
Your satellite tracking list
Your tracking list is empty




NASA's NSSDC Master Catalog

Two Line Element Set (TLE):
1 34323U 93036NV  19229.24507057  .00000508  00000-0  15575-3 0  9998
2 34323  73.9686 153.9410 0110025   9.0051 107.0001 14.40942852550056
Source of the keplerian elements: AFSPC